Regional Weather Roundup
Issued by NWS

Home | Current Version | Previous Version | Text Only | Print | Product List | Glossary On
Versions: 1 2 3 4 5 6 7 8 9 10 11 12 13 14 15 16 17 18 19 20 21 22 23 24 25 26 27 28 29 30 31 32 33 34 35 36 37 38 39 40 41 42 43 44 45 46 47 48 49 50
000
ASUS43 KLSX 100907
RWRMO

WEATHER SUMMARY FOR MISSOURI
NATIONAL WEATHER SERVICE SPRINGFIELD MO
300 AM CST SUN DEC 10 2017

NOTE: "FAIR" INDICATES FEW OR NO CLOUDS BELOW 12,000 FEET WITH NO
       SIGNIFICANT WEATHER AND/OR OBSTRUCTIONS TO VISIBILITY.
       CURRENT SKY AND/OR WEATHER CONDITIONS ARE NOT AVAILABLE FOR
       CHILLICOTHE AND FARMINGTON.

MOZ001>031-035>038-043-044-053-054-101000-
...NORTHERN AND WESTERN MISSOURI...

CITY           SKY/WX    TMP DP  RH WIND       PRES   REMARKS
KANSAS CTY INT CLOUDY    28  21  75 S10       30.07F WCI  19
KANSAS C DTWN  CLEAR     31  19  61 SW3       30.09F
LEE`S SUMMIT   CLOUDY    32  21  64 SW14      30.10F WCI  22
ST JOSEPH      CLOUDY    23  20  88 CALM      30.06F
CHILLICOTHE      N/A     24  17  74 S9        30.07F WCI  14
KIRKSVILLE     PTCLDY    24  17  74 SW10      30.05F WCI  14

$$
MOZ066>068-077>081-088>096-101>105-101000-
...SOUTHWEST MISSOURI...

CITY           SKY/WX    TMP DP  RH WIND       PRES   REMARKS
SPRINGFIELD    CLOUDY    24  17  74 S8        30.20R WCI  15
JOPLIN         CLEAR     28  21  75 S8        30.22S WCI  20
BRANSON        PTCLDY    32  19  59 CALM      30.23S

$$
MOZ032>034-039>042-045>050-055>058-069>072-101000-
...CENTRAL MISSOURI...

CITY           SKY/WX    TMP DP  RH WIND       PRES   REMARKS
COLUMBIA       CLOUDY    20  15  81 S9        30.12F WCI   9
JEFFERSON CITY PTCLDY    24  17  74 E6        30.17F WCI  17
ROLLA          CLEAR     21  16  81 S10       30.16F WCI  10
SEDALIA        CLOUDY    28  22  78 S10       30.14F WCI  19
WHITEMAN AFB   CLOUDY    22  17  79 S12       30.09F WCI  11
WARRENSBURG    CLOUDY    27  19  74 S7        30.13F WCI  19
OSAGE BEACH    CLOUDY    21  16  81 CALM      30.18F

$$
MOZ051-052-059>065-101000-
...EAST CENTRAL MISSOURI...

CITY           SKY/WX    TMP DP  RH WIND       PRES   REMARKS
ST LOUIS INTL  CLOUDY    23  17  78 SW6       30.17F WCI  16
SPIRIT OF STL  PTCLDY    20  16  84 CALM      30.17F
ST CHARLES     CLOUDY    19  14  81 SW7       30.16F WCI  10

$$
MOZ072>076-082>087-097>100-106>115-101000-
...SOUTH CENTRAL AND SOUTHEAST MISSOURI...

CITY           SKY/WX    TMP DP  RH WIND       PRES   REMARKS
CAPE GIRARDEAU PTCLDY    20  16  84 CALM      30.25R
FARMINGTON     CLOUDY    20  16  84 CALM      30.20S
POPLAR BLUFF   CLEAR     23  19  85 CALM      30.26S
WEST PLAINS    CLOUDY    24  16  71 SW6       30.22S WCI  17

$$



USA.gov is the U.S. government's official web portal to all federal, state and local government web resources and services.